Voltar ao catálogo

CZ-6A DEB

AtivoPO
NORAD 60648·DEBRIS·🇨🇳 China

Lançado Aug 6, 2024 de Taiyuan Satellite Launch Center

Loading…

Próximas Passagens (próximas 24 horas)

TLE

AtualizadoSource: Space-Track

Época: Sep 14, 2026, 11:54 UTC

1 60648U 24140AZ  26257.49630156  .00001091  00000-0  19264-3 0  9997
2 60648  89.0754 266.4083 0125676 280.4492  78.2579 14.61701269111901

Acompanhe CZ-6A DEB em tempo real com AllMySat

Download on the App Store